Location: Hurstbourne Priors
(51.2000°N, 1.3667°W)
Time: 21:52:41
(UTC+00:00)

Altair - Pass Details

Date: 17 April 2021
Orbit: 1501 x 1683 km, 47.2° (Epoch: 13 May)

Event Time Altitude Azimuth Distance (km) Brightness Sun altitude
Rises 14:29:47 0° 284° (WNW) 4,689 10.4 39.9°
Reaches altitude 10° 14:35:09 10° 259° (W) 3,674 10.4 39.3°
Maximum altitude 14:38:44 13° 235° (SW) 3,433 10.7 38.8°
Drops below altitude 10° 14:42:18 10° 212° (SSW) 3,646 10.6 38.4°
Sets 14:47:38 0° 186° (S) 4,620 10.5 37.7°
